[TLELIST] Archives

 

[list_settings.list_name] Current TLEs

April 15th 2009 PDT

HST 1 20580U 90037B 09104.53210049 .00000381 00000-0 16607-4 0 3666 2 20580 028.4698 157.6554 0003513 350.0623 009.9895 15.00474663840286 ISS (ZARYA) 1 25544U 98067A 09105.03361463 .00010810 00000-0 84738-4 0 6745 2 25544 051.6409 270.6510 0008667 240.6776 217.1430 15.72157162596013 CXO 1 25867U 99040B 09103.04166667 +.00000217 +00000-0 +10000-3 0 03133 2 25867 065.1656 071.3993 7402795 276.2573 000.2945 00.37806536004762 ____________________________________________________________________ These 2-Line ...Continue Reading

[list_settings.list_name] Current TLEs

April 14th 2009 PDT

HST 1 20580U 90037B 09101.53893026 +.00000350 +00000-0 +14168-4 0 03661 2 20580 028.4721 177.1932 0003792 314.1685 045.8590 15.00473653839836 ISS (ZARYA) 1 25544U 98067A 09104.08106641 .00010982 00000-0 86085-4 0 6684 2 25544 051.6407 275.5284 0008674 236.5696 226.4625 15.72136261595864 CXO 1 25867U 99040B 09103.04166667 +.00000217 +00000-0 +10000-3 0 03133 2 25867 065.1656 071.3993 7402795 276.2573 000.2945 00.37806536004762 ____________________________________________________________________ These 2-Line ...Continue Reading

[list_settings.list_name] Current TLEs

April 13th 2009 PDT

HST 1 20580U 90037B 09101.53893026 +.00000350 +00000-0 +14168-4 0 03661 2 20580 028.4721 177.1932 0003792 314.1685 045.8590 15.00473653839836 ISS (ZARYA) 1 25544U 98067A 09103.06309186 .00010728 00000-0 84283-4 0 6619 2 25544 051.6406 280.7409 0008836 231.2476 226.5279 15.72111702595700 CXO 1 25867U 99040B 09103.04166667 +.00000217 +00000-0 +10000-3 0 03133 2 25867 065.1656 071.3993 7402795 276.2573 000.2945 00.37806536004762 ____________________________________________________________________ These 2-Line ...Continue Reading

[list_settings.list_name] Current TLEs

April 12th 2009 PDT

HST 1 20580U 90037B 09100.54120548 .00000472 00000-0 23680-4 0 3645 2 20580 028.4718 183.6986 0003761 304.2718 055.7547 15.00474139839681 ISS (ZARYA) 1 25544U 98067A 09102.11034844 .00011961 00000-0 93500-4 0 6555 2 25544 051.6406 285.6193 0008747 228.3559 233.6853 15.72094567595553 CXO 1 25867U 99040B 09100.37500000 +.00000242 +00000-0 +10000-3 0 03126 2 25867 065.1541 071.4676 7395326 276.2863 357.2493 00.37806317004756 ____________________________________________________________________ These 2-Line ...Continue Reading

[list_settings.list_name] Current TLEs

April 11th 2009 PDT

HST 1 20580U 90037B 09100.54120548 .00000472 00000-0 23680-4 0 3645 2 20580 028.4718 183.6986 0003761 304.2718 055.7547 15.00474139839681 ISS (ZARYA) 1 25544U 98067A 09100.57041343 .00013985 00000-0 10864-3 0 6475 2 25544 051.6407 293.5053 0009102 219.9553 161.0190 15.72062132595318 CXO 1 25867U 99040B 09100.37500000 +.00000242 +00000-0 +10000-3 0 03126 2 25867 065.1541 071.4676 7395326 276.2863 357.2493 00.37806317004756 ____________________________________________________________________ These 2-Line ...Continue Reading

[list_settings.list_name] Current TLEs

April 10th 2009 PDT

HST 1 20580U 90037B 09098.61227370 +.00000326 +00000-0 +12371-4 0 03643 2 20580 028.4724 196.2788 0003873 282.6898 077.3245 15.00472071839396 ISS (ZARYA) 1 25544U 98067A 09100.14001394 .00013726 00000-0 10677-3 0 6442 2 25544 051.6407 295.7097 0009201 217.8723 245.6576 15.72048686595243 CXO 1 25867U 99040B 09097.75000000 +.00000327 +00000-0 +10000-3 0 03111 2 25867 065.1370 071.5271 7389500 276.3271 359.8314 00.37807466004744 ____________________________________________________________________ These 2-Line ...Continue Reading

[list_settings.list_name] Current TLEs

April 9th 2009 PDT

HST 1 20580U 90037B 09097.41500506 +.00000302 +00000-0 +10442-4 0 03646 2 20580 028.4725 204.0867 0003954 269.5561 090.4582 15.00471533839217 ISS (ZARYA) 1 25544U 98067A 09097.86590278 +.00008558 +00000-0 +68575-4 0 06325 2 25544 051.6416 307.3529 0009274 208.4145 336.6633 15.71972919594885 CXO 1 25867U 99040B 09097.75000000 +.00000327 +00000-0 +10000-3 0 03111 2 25867 065.1370 071.5271 7389500 276.3271 359.8314 00.37807466004744 ____________________________________________________________________ These 2-Line ...Continue Reading

[list_settings.list_name] Current TLEs

April 8th 2009 PDT

HST 1 20580U 90037B 09096.48379607 .00000246 00000-0 61528-5 0 3625 2 20580 028.4725 210.1603 0004062 259.5932 100.4206 15.00470916839078 ISS (ZARYA) 1 25544U 98067A 09097.58587181 .00009047 00000-0 72233-4 0 6312 2 25544 051.6415 308.7864 0009183 208.4944 190.8022 15.71970147594846 CXO 1 25867U 99040B 09097.75000000 +.00000327 +00000-0 +10000-3 0 03111 2 25867 065.1370 071.5271 7389500 276.3271 359.8314 00.37807466004744 ____________________________________________________________________ These 2-Line ...Continue Reading

[list_settings.list_name] Current TLEs

April 7th 2009 PDT

HST 1 20580U 90037B 09096.48379607 .00000246 00000-0 61528-5 0 3625 2 20580 028.4725 210.1603 0004062 259.5932 100.4206 15.00470916839078 ISS (ZARYA) 1 25544U 98067A 09097.09494647 .00009293 00000-0 74099-4 0 6294 2 25544 051.6416 311.3003 0009179 206.5981 292.6464 15.71961620594765 CXO 1 25867U 99040B 09092.41666667 .00000286 00000-0 10000-3 0 3109 2 25867 065.1211 071.7434 7375992 276.3680 353.6780 00.37798885 4726 ____________________________________________________________________ These 2-Line ...Continue Reading

[list_settings.list_name] Current TLEs

April 6th 2009 PDT

HST 1 20580U 90037B 09094.68789434 .00000366 00000-0 15446-4 0 3617 2 20580 028.4712 221.8812 0003940 244.1412 115.8778 15.00470867838801 ISS (ZARYA) 1 25544U 98067A 09095.81721698 .00009805 00000-0 77994-4 0 6208 2 25544 051.6419 317.8409 0009190 201.2065 262.4831 15.71938224594562 CXO 1 25867U 99040B 09092.41666667 .00000286 00000-0 10000-3 0 3109 2 25867 065.1211 071.7434 7375992 276.3680 353.6780 00.37798885 4726 ____________________________________________________________________ These 2-Line ...Continue Reading
  • This mailing list is a public mailing list - anyone may join or leave, at any time.
  • This mailing list is announce-only.

International Space Station (ISS) / Hubble Space Telescope (HST) / Chandra X-Ray Observatory Orbital Data via EMAIL

Privacy Policy:

Private list